Regional Weather Roundup
Issued by NWS

Home | Current Version | Previous Version | Text Only | Print | Product List | Glossary On
Versions: 1 2 3 4 5 6 7 8 9 10 11 12 13 14 15 16 17 18 19 20 21 22 23 24 25 26 27 28 29 30 31 32 33 34 35 36 37 38 39 40 41 42 43 44 45 46 47 48 49 50
000
ASUS46 KSTO 280015
RWRCA

NORTHERN AND CENTRAL CA REGIONAL WEATHER ROUNDUP
NATIONAL WEATHER SERVICE SACRAMENTO CA
500 PM PDT TUE JUN 27 2017

NOTE: FAIR INDICATES FEW OR NO CLOUDS BELOW 12,000 FEET WITH NO
SIGNIFICANT WEATHER AND/OR OBSTRUCTIONS TO VISIBILITY.

CAZ001-003-280100-
NORTHWEST AREA

CITY           SKY/WX    TMP DP  RH WIND       PRES   REMARKS
CRESCENT CITY  SUNNY     59  52  77 NW8       30.00F
UKIAH          SUNNY     87  51  28 W7        29.86F
$$

CAZ006-505>513-280100-
BAY AREA

CITY           SKY/WX    TMP DP  RH WIND       PRES   REMARKS
SANTA ROSA     SUNNY     75  56  51 SE15      29.88F
SAN RAFAEL     N/A       69  MM  MM MISG
NAPA           SUNNY     78  55  44 SW17G23   29.89F
CONCORD        SUNNY     79  55  43 S15       29.89F
OAKLAND CITY   N/A      MM  MM  MM MISG
OAKLAND        MOSUNNY   67  55  65 W18       29.96F
SAN FRAN CITY  N/A       60  MM  76 MISG
SAN FRAN ARPT  MOSUNNY   64  53  67 W23G30    29.95F
LIVERMORE      SUNNY     73  55  53 W15       29.90F
HAYWARD        MOSUNNY   66  52  60 NW9       29.95F
REDWOOD CITY   N/A       70  MM  56 MISG
MOFFETT ARPT   SUNNY     70  58  65 N15       29.94F
SAN JOSE ARPT  MOSUNNY   71  57  61 NW14      29.93F
$$
CAZ034-037-514>518-280100-
CENTRAL COAST

CITY           SKY/WX    TMP DP  RH WIND       PRES   REMARKS
WATSONVILLE    SUNNY     71  58  63 SE9       29.93F
SALINAS        SUNNY     66  55  67 W14G22    29.95F
MONTEREY       MOSUNNY   65  55  70 W14       29.97F
SAN LUIS OBISP SUNNY     68  55  63 NW21      29.89F
SANTA MARIA    MOSUNNY   67  56  67 NW17      29.91F
$$
CAZ015-016-280100-
NORTHERN SACRAMENTO VALLEY

CITY           SKY/WX    TMP DP  RH WIND       PRES   REMARKS
REDDING        SUNNY     94  45  18 SE15      29.78F HX  90
RED BLUFF      SUNNY     93  46  19 S12G21    29.80F
OROVILLE       SUNNY     92  47  21 S10       29.83F
$$
CAZ016>018-280100-
SOUTHERN SACRAMENTO VALLEY

CITY           SKY/WX    TMP DP  RH WIND       PRES   REMARKS
AUBURN         SUNNY     84  52  32 S7        29.90F
BEALE AFB      SUNNY     90  51  26 S8        29.81F
LINCOLN        FAIR      90  48  24 SW6       29.82F
MARYSVILLE     SUNNY     91  48  22 SW9       29.82F
SAC INTL ARPT  SUNNY     86  58  38 S14       29.82F
MATHER AIRPORT NOT AVBL
DOWNTOWN SAC   N/A       85  MM  MM MISG
SAC EXEC ARPT  SUNNY     83  58  42 SW16      29.84F
VACAVILLE      SUNNY     83  58  42 S12G26    29.84F
TRAVIS AFB     SUNNY     77  56  47 SW29      29.83F
$$
CAZ019>021-280100-
SAN JOAQUIN VALLEY

CITY           SKY/WX    TMP DP  RH WIND       PRES   REMARKS
STOCKTON       SUNNY     89  54  30 W15       29.84F
MODESTO        SUNNY     90  51  26 W15G22    29.82F
MERCED         SUNNY     91  51  25 NW13      29.81F
LEMOORE        MOSUNNY   93  54  26 N12       29.81F HX  91
FRESNO         SUNNY     94  49  21 NW8       29.81F HX  90
HANFORD        SUNNY     93  55  27 N7        29.81F HX  91
PORTERVILLE      N/A     94  57  28 NW9       29.81F HX  92
BAKERSFIELD    SUNNY     94  58  29 NW10      29.80F HX  93
$$
CAZ011-012-071-280100-
NORTHERN MOUNTAINS

CITY           SKY/WX    TMP DP  RH WIND       PRES   REMARKS
YREKA          SUNNY     87  49  26 N13G20    29.89F
MOUNT SHASTA   MOSUNNY   79  50  36 CALM      29.94F
ALTURAS        SUNNY     83  26  12 SW12G25   29.96F
$$
CAZ011-012-071-280100-
SIERRA NEVADA MTNS

CITY           SKY/WX    TMP DP  RH WIND       PRES   REMARKS
BLUE CANYON    SUNNY     72  41  32 S9G16     30.12F
TRUCKEE        SUNNY     75  28  17 SW14G23   30.11F
TAHOE VLY ARPT SUNNY     75  36  24 SW9G21    30.12F
MAMMOTH LAKES  FAIR      79  20  11 W17       30.17F
$$




USA.gov is the U.S. government's official web portal to all federal, state and local government web resources and services.